Погода в Табатинге

Бразилия     4°13′49″S   69°56′15″W
темп.,
°C
ветер,
м/с
пор.,
м/с
влажн.,
%
обл.,
%
осадки,
мм/ч
давл.,
гПа
погр.,
м
13 июня, вс
вс1301:00+22ю139493 0.1 101389
04:00+21ю139598 0.0 1013107
07:00+22ю149096 0.0 1015212
10:00+28ююв236396 0.0 10151172
13:00+29ююв125986 0.1 10121353
16:00+28ююз117185 0.0 1010194
19:00+25юз117972 0.0 101222
22:00+24юз1182100 0.0 101434
14 июня, пн
пн1401:00+23зсз1184100 0.0 101322
04:00+23зюз118689 0.0 101326
07:00+23з128426 0.0 1014152
10:00+30юз11555 0.0 1015963
13:00+33ю1146100 0.1 10112113
16:00+27в127596 0.1 101048
19:00+25ссв1380100 0.1 101279
22:00+24с1386100 0.0 101394
15 июня, вт
вт1501:00+23ссз1293100 0.0 101263
04:00+22с1196100 0.4 101358
07:00+23ссз149599 0.6 1015180
10:00+25сз1182100 0.0 1016496
13:00+26з117681 0.1 1013605
16:00+28ссз106984 0.5 1011777
19:00+22ссв119958 6.7 101436
22:00+22ссз019976 3.9 101517
16 июня, ср
ср1601:00+22с129998 4.0 101384
04:00+22сз019981 0.7 101327
07:00+23сз1199100 0.7 101492
10:00+26ссз1184100 0.1 1015351
13:00+26зюз129212 4.4 1012325
16:00+26ссз019488 2.9 1010205
19:00+23с1197100 3.6 101312
22:00+22зсз119988 0.3 101422
17 июня, чт
чт1701:00+21ссз1199100 0.7 101317
04:00+21ю0099100 0.1 101318
07:00+22зсз1198100 0.3 101565
10:00+26з1283100 0.9 1015516
13:00+26юв009393 5.6 1013317
16:00+24всв1297100 3.4 1011115
19:00+23всв119972 3.4 101319
22:00+22всв019992 0.0 101415